Waarnemingen

Advertentie
Mijn weer
Pau, Frankrijk (7610): temperatuur & dauwpunt: 17.05.2019 11:00:00 - 23.05.2019 11:00:00 (CEST)Pau, Frankrijk (7610): temperatuur 5cm: 17.05.2019 11:00:00 - 23.05.2019 11:00:00 (CEST)Pau, Frankrijk (7610): temperatuur -20cm & temperatuur -100cm: 17.05.2019 11:00:00 - 23.05.2019 11:00:00 (CEST)Pau, Frankrijk (7610): windsnelheid & windstoten: 17.05.2019 11:00:00 - 23.05.2019 11:00:00 (CEST)Pau, Frankrijk (7610): windrichting: 17.05.2019 11:00:00 - 23.05.2019 11:00:00 (CEST)Pau, Frankrijk (7610): luchtdruk: 17.05.2019 11:00:00 - 23.05.2019 11:00:00 (CEST)Pau, Frankrijk (7610): zicht: 17.05.2019 11:00:00 - 23.05.2019 11:00:00 (CEST)Pau, Frankrijk (7610): Zonneschijnduur: 17.05.2019 11:00:00 - 23.05.2019 11:00:00 (CEST)Pau, Frankrijk (7610): neerslag: 17.05.2019 11:00:00 - 23.05.2019 11:00:00 (CEST)
Datum & Tijd tt [°C] td [°C] tt 5cm [°C] tt -20cm [°C] tt -100cm [°C] ff [km/u] ff [kn] fx [km/u] fx [kn] dd ppp [hPa] vv [km] sd [min] rr [mm]
23.05.2019 11:00:00 21,1 12,5 - - - 2 1 9 5 ZW 1017,2 25 60 -
23.05.2019 10:00:00 19,4 11,9 18,6 16,4 14,9 4 2 10 5 ZO 1017,4 23 60 0,0
23.05.2019 09:00:00 16,4 11,8 12,9 16,4 14,9 5 3 16 9 ZZO 1017,5 10 60 0,0
23.05.2019 08:00:00 13,9 10,9 8,9 16,5 14,9 6 4 10 6 OZO 1017,6 9 60 0,0
23.05.2019 07:00:00 11,2 9,9 7,5 16,5 14,9 9 5 11 6 OZO 1017,4 8 4 0,0
23.05.2019 06:00:00 11,5 10,1 7,6 16,6 14,9 8 5 10 5 ZO 1017,3 11 0 0,0
23.05.2019 05:00:00 11,5 10,2 6,7 16,6 14,9 6 3 8 4 OZO 1017,2 14 0 0,0
23.05.2019 04:00:00 11,8 10,4 6,8 16,7 14,9 3 2 7 4 ZZO 1017,3 18 0 0,0
23.05.2019 03:00:00 12,7 10,6 7,2 16,6 14,9 4 2 6 4 OZO 1017,3 20 0 0,0
23.05.2019 02:00:00 13,8 11,0 8,2 16,7 15,0 4 2 9 5 ZO 1017,5 22 0 0,0
23.05.2019 01:00:00 14,8 10,8 8,9 16,6 15,0 4 2 9 5 O 1017,5 25 0 0,0
23.05.2019 00:00:00 15,6 11,2 9,3 16,6 14,9 6 3 10 6 ZO 1017,6 27 0 0,0
22.05.2019 23:00:00 16,8 11,7 10,5 16,5 14,9 5 3 8 4 O 1017,7 24 0 0,0
22.05.2019 22:00:00 18,8 11,4 11,9 16,4 14,9 5 3 11 6 ONO 1017,5 24 0 0,0
22.05.2019 21:00:00 21,6 11,3 16,4 16,3 15,0 8 5 18 10 NO 1017,0 29 58 0,0
22.05.2019 20:00:00 22,7 10,8 20,5 16,2 15,0 10 6 21 12 NO 1017,0 32 52 0,0
22.05.2019 19:00:00 22,9 11,0 22,9 16,0 14,9 8 4 24 13 ONO 1017,0 43 52 0,0
22.05.2019 18:00:00 23,2 11,6 25,4 15,9 15,0 9 5 23 12 NO 1017,1 28 51 0,0
22.05.2019 17:00:00 23,1 10,8 26,0 15,7 15,0 11 6 26 14 NO 1017,5 35 42 0,0
22.05.2019 16:00:00 22,7 11,4 27,6 15,5 15,0 14 7 29 16 NO 1017,7 20 47 0,0
22.05.2019 15:00:00 22,7 12,9 31,8 15,4 15,0 11 6 31 17 O 1018,1 20 55 0,0
22.05.2019 14:00:00 21,2 11,8 31,0 15,4 15,0 10 5 25 14 NO 1018,6 20 57 0,0
22.05.2019 13:00:00 20,3 10,7 29,3 15,3 14,9 8 4 19 10 NO 1019,2 9 56 0,0
22.05.2019 12:00:00 18,3 12,5 30,2 15,4 15,0 5 3 13 7 NNW 1019,8 18 60 0,0
22.05.2019 11:00:00 16,6 12,1 21,5 15,4 15,0 5 3 14 7 ZZO 1020,0 19 56 0,0
22.05.2019 10:00:00 14,5 12,5 14,8 15,5 15,0 5 3 10 6 ZW 1020,5 16 24 0,0
22.05.2019 09:00:00 12,2 11,6 11,8 15,5 15,0 3 2 6 3 Z 1020,5 10 25 0,0
22.05.2019 08:00:00 10,2 10,0 5,9 15,6 15,0 0 0 7 4 N 1020,6 7 6 0,0
22.05.2019 07:00:00 8,7 8,4 4,9 15,6 15,0 4 2 9 5 OZO 1020,4 7 0 0,0
22.05.2019 06:00:00 8,9 8,6 5,1 15,7 15,0 4 2 6 3 O 1020,3 5 0 0,0
22.05.2019 05:00:00 9,4 9,1 5,6 15,7 15,0 0 0 8 4 N 1020,3 9 0 0,0
22.05.2019 04:00:00 9,8 9,5 5,6 15,7 15,0 3 1 4 2 ONO 1020,0 4,8 0 0,0
22.05.2019 03:00:00 10,6 9,7 6,3 15,8 15,0 0 0 8 4 N 1020,1 2,8 0 0,0
22.05.2019 02:00:00 11,1 10,2 6,4 15,7 15,0 6 3 9 5 OZO 1020,1 11 0 0,0
22.05.2019 01:00:00 11,2 10,4 6,8 15,7 15,0 4 2 6 4 Z 1020,2 12 0 0,0
22.05.2019 00:00:00 12,0 10,6 6,8 15,7 15,0 6 4 9 5 WZW 1020,3 23 0 0,0
21.05.2019 23:00:00 13,0 10,7 7,8 15,6 15,0 3 1 18 10 WNW 1020,2 23 0 0,0
21.05.2019 22:00:00 14,4 9,8 8,4 15,5 15,0 3 2 5 3 W 1019,4 31 0 0,0
21.05.2019 21:00:00 18,2 8,7 13,6 15,4 15,0 3 2 11 6 N 1018,4 34 55 0,0
21.05.2019 20:00:00 18,7 9,2 19,6 15,3 15,0 7 4 18 10 N 1018,0 20 60 0,0
21.05.2019 19:00:00 18,7 9,7 18,8 15,2 15,0 9 5 22 12 N 1017,9 27 37 0,0
21.05.2019 18:00:00 18,6 10,4 21,1 15,1 15,0 10 5 22 12 N 1018,0 31 46 0,0
21.05.2019 17:00:00 19,0 10,8 20,9 15,0 15,0 8 5 19 11 NNW 1018,2 21 39 0,0
21.05.2019 16:00:00 18,3 10,6 20,8 14,9 15,0 8 4 19 11 N 1018,7 20 36 0,0
21.05.2019 15:00:00 17,6 10,9 23,9 14,8 15,1 6 3 17 9 WNW 1018,9 20 32 0,0
21.05.2019 14:00:00 16,1 10,2 21,5 14,8 15,0 7 4 19 10 NNO 1019,1 20 35 0,0
21.05.2019 13:00:00 15,0 11,0 20,6 14,8 15,1 11 6 25 13 NNO 1019,5 12 33 0,0
21.05.2019 12:00:00 13,0 10,2 17,0 14,8 15,1 8 5 14 8 N 1019,6 13 0 0,0
21.05.2019 11:00:00 11,9 10,5 14,4 14,8 15,0 4 2 9 5 N 1019,5 13 0 0,0
21.05.2019 10:00:00 11,0 10,8 11,7 14,9 15,0 3 2 8 4 NNO 1019,3 8 0 0,0
21.05.2019 09:00:00 10,4 10,2 10,7 15,0 15,1 4 2 8 4 NW 1019,2 5 0 0,0
21.05.2019 08:00:00 9,8 9,8 9,5 15,0 15,1 2 1 6 3 ZW 1018,9 5 0 0,0
21.05.2019 07:00:00 9,2 9,2 7,0 15,1 15,1 2 1 9 5 ZW 1018,3 2,0 0 0,0
21.05.2019 06:00:00 8,4 8,3 4,4 15,1 15,1 3 2 8 4 ZZW 1018,0 1,5 0 0,0
21.05.2019 05:00:00 7,9 7,6 3,6 15,1 15,1 3 1 4 2 Z 1017,7 1,0 0 0,0
21.05.2019 04:00:00 8,5 8,4 4,3 15,2 15,1 3 1 5 3 NO 1017,4 1,6 0 0,0
21.05.2019 03:00:00 8,4 8,1 4,1 15,2 15,1 2 1 5 3 ZZW 1017,5 2,8 0 0,0
21.05.2019 02:00:00 8,6 8,3 4,0 15,2 15,1 0 0 6 4 N 1017,8 2,2 0 0,0
21.05.2019 01:00:00 9,1 8,3 5,1 15,2 15,1 5 3 6 4 O 1017,9 5 0 0,0
21.05.2019 00:00:00 10,3 9,7 6,1 15,2 15,1 4 2 6 4 O 1017,8 7 0 0,0
20.05.2019 23:00:00 11,0 10,2 6,3 15,1 15,1 2 1 9 5 ONO 1017,8 14 0 0,0
20.05.2019 22:00:00 11,7 10,3 7,0 15,1 15,1 2 1 11 6 ZO 1016,8 19 0 0,0
20.05.2019 21:00:00 13,1 10,5 11,3 15,0 15,1 8 4 22 12 NNW 1016,2 28 0 0,0
20.05.2019 20:00:00 14,0 11,0 14,5 14,9 15,1 13 7 28 15 NNW 1015,8 35 13 0,0
20.05.2019 19:00:00 15,0 10,8 15,9 14,7 15,1 18 10 29 16 NNW 1015,6 14 0 0,0
20.05.2019 18:00:00 17,3 11,3 18,5 14,6 15,1 17 9 28 15 NW 1014,9 32 31 0,0
20.05.2019 17:00:00 17,4 10,0 20,3 14,5 15,1 18 10 35 19 WNW 1014,8 20 21 0,0
20.05.2019 16:00:00 16,5 11,2 20,1 14,5 15,1 16 9 29 16 WNW 1015,2 23 33 0,0
20.05.2019 15:00:00 16,6 10,0 18,6 14,4 15,1 16 9 36 19 WNW 1015,4 23 26 0,0
20.05.2019 14:00:00 15,1 9,9 18,8 14,4 15,1 17 9 27 15 W 1015,7 25 46 0,0
20.05.2019 13:00:00 14,7 11,1 19,2 14,4 15,1 17 9 28 15 WZW 1016,1 11 41 0,2
20.05.2019 12:00:00 13,2 10,7 13,2 14,4 15,1 14 7 23 13 WZW 1016,3 20 1 0,0
20.05.2019 11:00:00 12,0 10,2 11,2 14,4 15,1 12 7 22 12 ZW 1016,4 21 0 0,0
20.05.2019 10:00:00 11,4 10,0 11,0 14,4 15,1 12 7 26 14 ZW 1016,2 22 0 0,0
20.05.2019 09:00:00 10,8 9,7 10,1 14,4 15,0 11 6 19 10 ZZW 1015,9 20 0 0,0
20.05.2019 08:00:00 10,2 9,4 9,8 14,5 15,1 9 5 14 8 ZW 1015,5 4,6 0 0,0
20.05.2019 07:00:00 10,2 9,3 9,8 14,5 15,1 6 4 14 8 ZW 1015,0 15 0 0,0
20.05.2019 06:00:00 10,7 9,3 9,8 14,5 15,1 9 5 18 10 WZW 1014,5 19 0 0,0
20.05.2019 05:00:00 10,9 9,7 10,1 14,6 15,1 11 6 22 12 WZW 1014,6 16 0 0,2
20.05.2019 04:00:00 11,0 10,1 10,5 14,6 15,0 13 7 24 13 WZW 1014,7 14 0 0,0
20.05.2019 03:00:00 11,0 10,2 10,6 14,6 15,1 13 7 25 14 WZW 1014,9 13 0 0,0
20.05.2019 02:00:00 11,1 10,5 10,7 14,6 15,1 15 8 23 12 WZW 1015,2 7 0 0,0
20.05.2019 01:00:00 11,2 10,7 10,3 14,6 15,1 11 6 23 12 WZW 1015,6 8 0 0,0
20.05.2019 00:00:00 11,2 10,4 10,4 14,6 15,1 10 5 22 12 WZW 1015,6 10 0 0,0
19.05.2019 23:00:00 11,4 10,5 9,9 14,7 15,1 8 4 21 12 WZW 1015,6 12 0 0,0
19.05.2019 22:00:00 11,3 10,4 10,0 14,6 15,1 15 8 31 17 WZW 1014,8 12 0 0,0
19.05.2019 21:00:00 12,7 10,6 11,4 14,7 15,1 14 7 27 15 W 1014,0 16 25 0,0
19.05.2019 20:00:00 12,4 10,5 11,4 14,6 15,1 3 1 31 17 O 1013,5 27 18 0,0
19.05.2019 19:00:00 12,1 10,5 11,6 14,6 15,1 16 9 29 16 ZZW 1012,8 22 0 0,2
19.05.2019 18:00:00 12,2 11,1 12,0 14,6 15,1 8 4 22 12 ZZW 1013,1 9 0 0,0
19.05.2019 17:00:00 12,5 11,4 11,4 14,6 15,1 11 6 27 15 ZW 1013,1 32 0 0,0
19.05.2019 16:00:00 12,0 10,2 12,0 14,6 15,1 15 8 30 16 WZW 1013,0 25 0 0,0
19.05.2019 15:00:00 11,7 9,8 12,2 14,6 15,1 19 10 29 16 ZW 1012,8 17 0 0,0
19.05.2019 14:00:00 11,4 9,8 12,2 14,7 15,1 17 9 29 15 ZW 1012,6 26 0 0,0
19.05.2019 13:00:00 11,5 9,7 11,2 14,7 15,1 14 8 29 16 ZW 1012,2 60 0 0,0
19.05.2019 12:00:00 10,4 9,2 10,7 14,7 15,1 16 9 31 17 ZW 1012,2 23 0 0,2
19.05.2019 11:00:00 10,1 9,0 9,9 14,7 15,1 15 8 22 12 ZW 1011,8 7 0 0,0
19.05.2019 10:00:00 9,9 8,5 10,3 14,8 15,1 14 8 27 14 ZW 1011,5 15 0 0,0
19.05.2019 09:00:00 10,2 7,6 10,0 14,8 15,1 15 8 22 12 WZW 1011,2 40 0 0,0
19.05.2019 08:00:00 9,8 7,4 9,2 14,9 15,1 7 4 18 10 ZW 1010,9 41 0 0,0
19.05.2019 07:00:00 9,5 7,3 8,9 15,0 15,1 6 4 22 12 ZW 1010,8 41 0 0,0
19.05.2019 06:00:00 9,3 7,4 8,4 15,0 15,0 10 6 15 8 WZW 1010,6 45 0 0,2
19.05.2019 05:00:00 9,3 7,1 8,4 15,0 15,1 8 4 16 9 WZW 1010,6 58 0 0,0
19.05.2019 04:00:00 9,3 6,6 8,4 15,1 15,1 10 5 18 10 WZW 1010,5 60 0 0,0
19.05.2019 03:00:00 9,4 7,2 8,6 15,1 15,0 11 6 22 12 ZW 1010,5 60 0 0,0
19.05.2019 02:00:00 9,6 7,5 8,9 15,1 15,0 12 7 24 13 ZW 1010,8 59 0 0,0
19.05.2019 01:00:00 9,9 7,3 8,9 15,2 15,0 11 6 22 12 ZW 1011,1 57 0 0,0
19.05.2019 00:00:00 9,9 7,5 8,6 15,2 15,0 9 5 19 10 ZW 1011,3 37 0 0,2
18.05.2019 23:00:00 9,6 7,5 8,4 15,2 15,0 9 5 17 9 ZZW 1011,5 45 0 0,0
18.05.2019 22:00:00 9,2 7,8 8,4 15,2 15,0 10 6 22 12 ZZW 1011,7 12 0 0,0
18.05.2019 21:00:00 9,8 8,1 8,8 15,2 15,0 15 8 39 21 ZW 1011,8 13 0 0,0
18.05.2019 20:00:00 11,0 7,3 10,8 15,2 15,0 24 13 39 21 WZW 1011,5 40 4 0,2
18.05.2019 19:00:00 11,5 8,0 12,3 15,2 15,0 28 15 47 25 W 1011,2 26 10 0,0
18.05.2019 18:00:00 12,8 9,1 13,5 15,2 15,0 26 14 46 25 W 1010,6 22 44 0,0
18.05.2019 17:00:00 11,7 10,9 9,5 15,2 14,9 17 9 54 29 WNW 1010,4 27 6 0,2
18.05.2019 16:00:00 11,0 9,6 9,8 15,3 15,0 14 7 52 28 W 1010,6 31 0 0,0
18.05.2019 15:00:00 11,3 9,2 11,6 15,3 15,0 26 14 43 23 W 1010,4 18 0 0,0
18.05.2019 14:00:00 11,8 9,0 12,1 15,3 14,9 24 13 40 22 W 1010,2 18 1 0,2
18.05.2019 13:00:00 11,6 7,3 12,0 15,3 14,9 22 12 40 22 W 1010,3 20 2 0,0
18.05.2019 12:00:00 11,9 6,6 12,9 15,4 14,9 23 12 42 23 WZW 1010,0 30 0 0,2
18.05.2019 11:00:00 11,5 6,2 12,3 15,4 14,8 20 11 35 19 WZW 1010,1 29 0 0,0
18.05.2019 10:00:00 10,9 6,6 10,6 15,5 14,9 16 9 26 14 WZW 1010,0 30 0 0,2
18.05.2019 09:00:00 10,2 6,9 9,2 15,6 14,8 13 7 23 12 WZW 1010,0 46 0 0,0
18.05.2019 08:00:00 9,6 7,2 8,4 15,6 14,8 10 5 24 13 W 1010,0 47 0 0,2
18.05.2019 07:00:00 9,5 6,9 8,2 15,7 14,8 18 10 31 17 WZW 1009,8 47 0 0,0
18.05.2019 06:00:00 9,5 7,3 8,3 15,7 14,8 19 10 37 20 WZW 1009,7 43 0 0,2
18.05.2019 05:00:00 9,7 7,6 8,6 15,8 14,8 17 9 29 15 WZW 1009,7 56 0 0,0
18.05.2019 04:00:00 9,7 8,1 8,9 15,9 14,8 16 9 30 16 WZW 1010,1 30 0 0,2
18.05.2019 03:00:00 9,9 8,2 8,9 15,9 14,8 18 10 29 16 WZW 1010,5 49 0 0,0
18.05.2019 02:00:00 9,9 8,3 8,9 16,0 14,8 18 10 37 20 WZW 1010,8 45 0 0,2
18.05.2019 01:00:00 10,3 8,9 9,2 16,0 14,8 20 11 34 18 WZW 1010,9 18 0 0,2
18.05.2019 00:00:00 10,6 9,2 9,7 16,0 14,8 16 8 35 19 ZW 1011,0 27 0 0,2
17.05.2019 23:00:00 11,7 9,8 11,0 16,0 14,8 15 8 28 15 W 1010,8 8 0 0,2
17.05.2019 22:00:00 12,0 9,4 11,4 16,1 14,8 18 10 34 18 W 1010,4 20 0 0,2
17.05.2019 21:00:00 12,6 9,6 11,9 16,1 14,7 20 11 37 20 W 1009,7 20 0 0,2
17.05.2019 20:00:00 13,4 10,2 11,4 16,1 14,7 23 12 40 22 W 1009,0 25 0 0,4
17.05.2019 19:00:00 13,6 10,2 11,4 16,2 14,7 22 12 37 20 W 1008,6 20 0 0,2
17.05.2019 18:00:00 13,5 11,5 12,3 16,2 14,7 24 13 36 20 W 1008,5 6 0 0,4
17.05.2019 17:00:00 12,7 11,4 12,3 16,3 14,7 13 7 28 15 ZW 1008,1 4,1 0 0,4
17.05.2019 16:00:00 12,6 10,8 11,9 16,3 14,7 16 9 29 15 WZW 1008,4 21 0 0,5
17.05.2019 15:00:00 12,2 11,1 12,1 16,4 14,7 19 11 31 17 W 1008,2 18 0 0,4
17.05.2019 14:00:00 12,1 10,8 11,6 16,5 14,7 16 9 26 14 W 1007,5 28 0 0,8
17.05.2019 13:00:00 11,3 10,8 11,3 16,5 14,7 16 9 23 13 ZW 1006,9 26 0 0,8
17.05.2019 12:00:00 11,5 11,0 11,2 16,6 14,7 18 10 27 15 WZW 1006,2 9 0 0,8
17.05.2019 11:00:00 11,4 10,9 11,6 16,7 14,7 15 8 24 13 ZW 1005,5 5 0 1,4

tt = temperatuur
td = dauwpunt
tt 5cm = temperatuur 5cm
tt -20cm = temperatuur -20cm
tt -100cm = temperatuur -100cm
ff = windsnelheid
fx = windstoten
dd = windrichting
ppp = luchtdruk
vv = zicht
sd = Zonneschijnduur
rr = neerslag

Weerstations in de omgeving